Location: Newark
(44.7167°N, 8.0833°E)
Time: 18:36:09
(UTC+00:00)

N. Korean satellite - Visible Passes

Search period start: 10 December 2019 00:00
Search period end: 20 December 2019 00:00
Orbit: 456 x 506 km, 97.2° (Epoch: 09 December)

Date Brightness Start Highest point End Pass type
(mag) Time Alt. Az. Time Alt. Az. Time Alt. Az.
10 Dec 7.7 05:02:29 10° NNE 05:05:54 43° E 05:09:14 10° S visible
10 Dec 9.1 17:12:59 10° SSW 17:16:06 25° W 17:19:14 10° NW visible
11 Dec 9.2 04:37:33 10° NE 04:40:20 21° E 04:43:03 10° SE visible
11 Dec 7.6 06:10:47 10° NNW 06:13:41 24° WNW 06:16:33 10° SW visible
11 Dec 7.6 16:46:58 10° S 16:50:34 51° W 16:54:12 10° NNW visible
12 Dec 10.1 04:13:48 10° ENE 04:14:40 11° E 04:15:32 10° ESE visible
12 Dec 6.7 05:44:58 10° N 05:48:23 49° WNW 05:51:44 10° SSW visible
12 Dec 6.6 16:21:27 10° SSE 16:25:08 75° ENE 16:28:49 10° N visible
13 Dec 6.6 05:19:27 10° NNE 05:22:59 76° ESE 05:26:26 10° S visible
13 Dec 9.8 17:30:55 10° SW 17:33:18 16° W 17:35:40 10° NW visible
14 Dec 8.2 04:54:15 10° NNE 04:57:29 34° E 05:00:39 10° SSE visible
14 Dec 8.7 17:04:24 10° SSW 17:07:42 31° W 17:11:01 10° NNW visible
15 Dec 9.5 04:29:31 10° NE 04:31:53 17° E 04:34:13 10° SE visible
15 Dec 7.3 06:02:15 10° N 06:05:21 29° WNW 06:08:23 10° SW visible
15 Dec 7.1 16:38:32 10° S 16:42:12 65° W 16:45:51 10° NNW visible
16 Dec 6.4 05:36:32 10° N 05:40:00 63° WNW 05:43:24 10° SSW visible
16 Dec 10.4 17:50:11 10° W 17:50:31 10° W 17:50:51 10° W visible
17 Dec 7.1 05:11:07 10° NNE 05:14:34 58° E 05:17:57 10° S visible
17 Dec 9.5 17:22:07 10° SW 17:24:51 20° W 17:27:36 10° NW visible
18 Dec 8.7 04:46:01 10° NE 04:49:02 27° E 04:51:59 10° SSE visible
18 Dec 7.9 06:19:44 10° NNW 06:22:15 19° WNW 06:24:45 10° WSW visible
18 Dec 8.2 16:55:51 10° SSW 16:59:17 39° W 17:02:44 10° NNW visible
19 Dec 9.8 04:21:35 10° ENE 04:23:23 14° E 04:25:11 10° ESE visible
19 Dec 7.0 05:53:44 10° N 05:56:58 37° WNW 06:00:09 10° SW visible
19 Dec 6.7 16:30:09 10° S 16:33:49 83° WSW 16:37:27 10° NNW visible
